Terug naar catalogus

INTELSAT 604

ActiefCommunicatieGEO
NORAD 20667·PAYLOAD· XX

Gelanceerd Jun 23, 1990 vanaf Cape Canaveral Space Force Station

Loading…

TLE

VersSource: Space-Track

Epoch: Sep 13, 2026, 20:59 UTC

1 20667U 90056A   26256.87430919 -.00000008  00000-0  00000+0 0  9991
2 20667  14.6787   9.2914 0005153 299.3809  59.2442  0.98432460 47345

Volg INTELSAT 604 in realtime met AllMySat

Download on the App Store